This is the latest recevied weather packets stored in our database for station/object OE6JVE-13. If no packets are shown the sender has not sent any weather packets the latest 10 day(s).
| Time | Temp. | Humidity | Pressure | Rain* | Wind** | Luminosity | Snow |
|---|---|---|---|---|---|---|---|
| 1777315230 | 11.67° C | 68% | 1012.4 hPa | 0 mm | - | - | - |
| 1777314638 | 11.67° C | 68% | 1012.3 hPa | 0 mm | - | - | - |
| 1777314046 | 12.22° C | 62% | 1012.2 hPa | 0 mm | - | - | - |
| 1777313454 | 12.78° C | 60% | 1012 hPa | 0 mm | - | - | - |
| 1777312862 | 13.33° C | 60% | 1012 hPa | 0 mm | - | - | - |
| 1777312270 | 13.89° C | 59% | 1011.8 hPa | 0 mm | - | - | - |
| 1777311678 | 13.89° C | 57% | 1011.6 hPa | 0 mm | - | - | - |
| 1777311020 | 14.44° C | 54% | 1011.6 hPa | 0 mm | - | - | - |
| 1777310428 | 15° C | 52% | 1011.6 hPa | 0 mm | - | - | - |
| 1777309835 | 16.11° C | 50% | 1011.7 hPa | 0 mm | - | - | - |
| 1777309243 | 16.67° C | 48% | 1011.5 hPa | 0 mm | - | - | - |
| 1777308651 | 17.22° C | 42% | 1011.4 hPa | 0 mm | - | - | - |
| 1777308059 | 17.22° C | 40% | 1011.4 hPa | 0 mm | - | - | - |
| 1777307466 | 17.22° C | 40% | 1011.3 hPa | 0 mm | - | - | - |
| 1777306875 | 18.33° C | 36% | 1011.3 hPa | 0 mm | - | - | - |
| 1777306217 | 18.89° C | 34% | 1011.4 hPa | 0 mm | - | - | - |
| 1777305624 | 19.44° C | 34% | 1011.3 hPa | 0 mm | - | - | - |
| 1777305032 | 20.56° C | 32% | 1011.3 hPa | 0 mm | - | - | - |
| 1777304440 | 21.11° C | 32% | 1011.3 hPa | 0 mm | - | - | - |
| 1777303848 | 21.67° C | 32% | 1011.4 hPa | 0 mm | - | - | - |
| 1777303256 | 21.67° C | 32% | 1011.5 hPa | 0 mm | - | - | - |
| 1777302664 | 21.67° C | 31% | 1011.5 hPa | 0 mm | - | - | - |
| 1777302072 | 21.67° C | 31% | 1011.3 hPa | 0 mm | - | - | - |
| 1777301480 | 21.67° C | 32% | 1011.3 hPa | 0 mm | - | - | - |
| 1777300822 | 21.67° C | 32% | 1011.3 hPa | 0 mm | - | - | - |
* Rain latest hour (hover to see other rain measurements)
** Current wind speed in m/s (hover to see current wind gust speed)